Clermont County, Batavia, OH

5:46 AM EDT on March 27, 2017 (GMT -0400)
Clermont County, Batavia

Weather History for KI69 - August, 2014

Change the Weather History Date:

Sunday, August 17, 2014

  Actual Average (KLUK) Record (KLUK)
Temperature  
Mean Temperature 74 °F -  
Max Temperature 80 °F 85 °F 103 °F (1988)
Min Temperature 68 °F 64 °F 51 °F (1958)
Cooling Degree Days 9    
Growing Degree Days 24 (Base 50)    
Moisture  
Dew Point 68 °F    
Average Humidity 80    
Maximum Humidity 100    
Minimum Humidity 61    
Precipitation  
Precipitation 0.00 in - - ()
Sea Level Pressure  
Sea Level Pressure 29.97 in    
Wind  
Wind Speed 3 mph (SSE)    
Max Wind Speed 7 mph    
Max Gust Speed -    
Visibility 10 miles    
Events      
Averages and records for this station are not official NWS values.
T = Trace of Precipitation, MM = Missing Value Source: NWS Daily Summary

Daily Weather History Graph

Daily Weather History Graph

Search for Another Location

Airport or City:

Trip Planner

Search our weather history database for the weather conditions in past years. The results will help you decide how hot, cold, wet, or windy it might be!

Date:

Astronomy

Aug. 17, 2014 Rise Set
Actual Time 6:51 AM EDT 8:29 PM EDT
Civil Twilight 6:23 AM EDT 8:57 PM EDT
Nautical Twilight 5:49 AM EDT 9:31 PM EDT
Astronomical Twilight 5:12 AM EDT 10:07 PM EDT
Moon 12:16 AM EDT (8/17) 2:33 PM EDT (8/17)
Length of Visible Light 14h 33m
Length of Day
13h 37m
Waning Gibbous, 48% of the Moon is Illuminated
Aug 17
Waning Gibbous
Aug 25
New
Sep 2
First Quarter
Sep 8
Full
Sep 15
Last Quarter

Hourly Weather History & Observations

Time (EDT) Temp. Heat Index Dew Point Humidity Pressure Visibility Wind Dir Wind Speed Gust Speed Precip Events Conditions
12:14 AM 73.4 °F - 66.2 °F 78% 30.01 in 10.0 mi WSW 3.5 mph - N/A   Overcast
12:34 AM 73.4 °F - 64.4 °F 73% 30.01 in 10.0 mi WSW 5.8 mph - N/A   Overcast
12:54 AM 73.4 °F - 64.4 °F 73% 30.01 in 10.0 mi WSW 3.5 mph - N/A   Overcast
1:14 AM 73.4 °F - 64.4 °F 73% 30.01 in 10.0 mi Calm Calm - N/A   Overcast
1:34 AM 71.6 °F - 64.4 °F 78% 30.00 in 10.0 mi SW 3.5 mph - N/A   Overcast
1:54 AM 71.6 °F - 64.4 °F 78% 30.00 in 10.0 mi WSW 3.5 mph - N/A   Overcast
2:14 AM 71.6 °F - 66.2 °F 83% 30.00 in 10.0 mi WSW 3.5 mph - N/A   Overcast
2:34 AM 71.6 °F - 66.2 °F 83% 30.00 in 10.0 mi WSW 3.5 mph - N/A   Overcast
3:14 AM 71.6 °F - 66.2 °F 83% 29.99 in 10.0 mi Calm Calm - N/A   Overcast
3:33 AM 71.6 °F - 66.2 °F 83% 29.99 in 10.0 mi WSW 3.5 mph - N/A   Overcast
3:54 AM 71.6 °F - 66.2 °F 83% 30.00 in 10.0 mi Calm Calm - N/A   Overcast
4:14 AM 69.8 °F - 66.2 °F 88% 29.99 in 10.0 mi Calm Calm - N/A   Overcast
4:33 AM 69.8 °F - 68.0 °F 94% 29.99 in 10.0 mi Calm Calm - N/A   Overcast
4:54 AM 69.8 °F - 68.0 °F 94% 29.99 in 10.0 mi South 3.5 mph - N/A   Overcast
5:14 AM 69.8 °F - 68.0 °F 94% 29.98 in 10.0 mi SSW 3.5 mph - N/A   Overcast
5:33 AM 69.8 °F - 66.2 °F 88% 29.98 in 10.0 mi Calm Calm - N/A   Overcast
5:54 AM 69.8 °F - 64.4 °F 83% 29.98 in 10.0 mi Calm Calm - N/A   Overcast
6:14 AM 69.8 °F - 64.4 °F 83% 29.98 in 7.0 mi Calm Calm - N/A   Overcast
6:33 AM 68.0 °F - 66.2 °F 94% 29.98 in 7.0 mi Calm Calm - N/A   Overcast
6:54 AM 68.0 °F - 68.0 °F 100% 29.99 in 10.0 mi Calm Calm - N/A   Overcast
7:14 AM 68.0 °F - 68.0 °F 100% 29.99 in 7.0 mi Calm Calm - N/A   Overcast
7:33 AM 69.8 °F - 68.0 °F 94% 29.99 in 7.0 mi Calm Calm - N/A   Overcast
7:54 AM 69.8 °F - 68.0 °F 94% 30.00 in 7.0 mi Calm Calm - N/A   Overcast
8:14 AM 69.8 °F - 68.0 °F 94% 30.00 in 7.0 mi Calm Calm - N/A   Overcast
8:33 AM 69.8 °F - 68.0 °F 94% 30.00 in 10.0 mi Calm Calm - N/A   Overcast
8:54 AM 69.8 °F - 68.0 °F 94% 30.00 in 10.0 mi NE 3.5 mph - N/A   Overcast
9:14 AM 71.6 °F - 68.0 °F 88% 30.00 in 10.0 mi SE 3.5 mph - N/A   Overcast
9:33 AM 71.6 °F - 68.0 °F 88% 29.99 in 10.0 mi SE 3.5 mph - N/A   Overcast
9:54 AM 71.6 °F - 68.0 °F 88% 29.99 in 10.0 mi ESE 3.5 mph - N/A   Overcast
10:13 AM 71.6 °F - 68.0 °F 88% 30.00 in 10.0 mi Calm Calm - N/A   Overcast
10:34 AM 73.4 °F - 68.0 °F 83% 30.00 in 10.0 mi East 3.5 mph - N/A   Overcast
10:54 AM 73.4 °F - 68.0 °F 83% 30.00 in 10.0 mi ESE 3.5 mph - N/A   Overcast
11:13 AM 75.2 °F - 68.0 °F 78% 30.00 in 10.0 mi SE 4.6 mph - N/A   Overcast
11:34 AM 77.0 °F - 68.0 °F 74% 30.00 in 10.0 mi ESE 4.6 mph - N/A   Overcast
11:54 AM 77.0 °F - 68.0 °F 74% 29.99 in 10.0 mi Calm Calm - N/A   Overcast
12:13 PM 77.0 °F - 68.0 °F 74% 29.99 in 10.0 mi ESE 5.8 mph - N/A   Overcast
12:34 PM 77.0 °F - 68.0 °F 74% 29.99 in 10.0 mi SSE 4.6 mph - N/A   Overcast
12:54 PM 77.0 °F - 68.0 °F 74% 29.99 in 10.0 mi SSE 4.6 mph - N/A   Overcast
1:13 PM 77.0 °F - 68.0 °F 74% 29.98 in 10.0 mi South 3.5 mph - N/A   Overcast
1:34 PM 78.8 °F - 68.0 °F 69% 29.97 in 10.0 mi ESE 4.6 mph - N/A   Overcast
1:54 PM 80.6 °F 83.2 °F 68.0 °F 65% 29.96 in 10.0 mi East 4.6 mph - N/A   Mostly Cloudy
2:14 PM 78.8 °F - 68.0 °F 69% 29.95 in 10.0 mi ESE 4.6 mph - N/A   Overcast
2:34 PM 78.8 °F - 68.0 °F 69% 29.96 in 10.0 mi SSE 3.5 mph - N/A   Overcast
2:54 PM 80.6 °F 83.2 °F 68.0 °F 65% 29.96 in 10.0 mi South 4.6 mph - N/A   Mostly Cloudy
3:14 PM 80.6 °F 82.7 °F 66.2 °F 61% 29.96 in 10.0 mi SSE 3.5 mph - N/A   Mostly Cloudy
3:34 PM 78.8 °F - 68.0 °F 69% 29.96 in 10.0 mi South 5.8 mph - N/A   Mostly Cloudy
3:54 PM 80.6 °F 83.2 °F 68.0 °F 65% 29.95 in 10.0 mi SW 4.6 mph - N/A   Scattered Clouds
4:14 PM 80.6 °F 83.2 °F 68.0 °F 65% 29.95 in 10.0 mi SSE 3.5 mph - N/A   Mostly Cloudy
4:34 PM 80.6 °F 83.2 °F 68.0 °F 65% 29.95 in 10.0 mi South 5.8 mph - N/A   Scattered Clouds
4:54 PM 80.6 °F 83.2 °F 68.0 °F 65% 29.95 in 10.0 mi South 4.6 mph - N/A   Mostly Cloudy
5:14 PM 80.6 °F 83.2 °F 68.0 °F 65% 29.95 in 10.0 mi South 6.9 mph - N/A   Scattered Clouds
5:34 PM 80.6 °F 82.7 °F 66.2 °F 61% 29.95 in 10.0 mi South 5.8 mph - N/A   Scattered Clouds
6:14 PM 80.6 °F 82.7 °F 66.2 °F 61% 29.94 in 10.0 mi SSE 3.5 mph - N/A   Scattered Clouds
6:34 PM 78.8 °F - 66.2 °F 65% 29.94 in 10.0 mi SSE 6.9 mph - N/A   Scattered Clouds
6:54 PM 78.8 °F - 68.0 °F 69% 29.94 in 10.0 mi South 4.6 mph - N/A   Scattered Clouds
7:14 PM 78.8 °F - 68.0 °F 69% 29.94 in 10.0 mi South 3.5 mph - N/A   Mostly Cloudy
7:34 PM 77.0 °F - 68.0 °F 74% 29.93 in 10.0 mi Calm Calm - N/A   Overcast
7:54 PM 77.0 °F - 68.0 °F 74% 29.92 in 10.0 mi Calm Calm - N/A   Overcast
8:14 PM 77.0 °F - 68.0 °F 74% 29.92 in 10.0 mi SSE 3.5 mph - N/A   Overcast
8:34 PM 77.0 °F - 69.8 °F 78% 29.92 in 10.0 mi Calm Calm - N/A   Overcast
8:54 PM 75.2 °F - 69.8 °F 83% 29.92 in 10.0 mi Calm Calm - N/A   Overcast
9:14 PM 75.2 °F - 69.8 °F 83% 29.93 in 10.0 mi Calm Calm - N/A   Overcast
9:34 PM 73.4 °F - 69.8 °F 88% 29.94 in 10.0 mi Calm Calm - N/A   Mostly Cloudy
9:54 PM 73.4 °F - 69.8 °F 88% 29.93 in 10.0 mi Calm Calm - N/A   Scattered Clouds
10:14 PM 73.4 °F - 69.8 °F 88% 29.93 in 10.0 mi SE 3.5 mph - N/A   Mostly Cloudy
10:34 PM 73.4 °F - 69.8 °F 88% 29.93 in 10.0 mi SE 4.6 mph - N/A   Overcast
10:54 PM 73.4 °F - 69.8 °F 88% 29.94 in 10.0 mi SSE 3.5 mph - N/A   Overcast
11:14 PM 73.4 °F - 69.8 °F 88% 29.93 in 10.0 mi SE 4.6 mph - N/A   Scattered Clouds
11:34 PM 71.6 °F - 69.8 °F 94% 29.92 in 10.0 mi Calm Calm - N/A   Scattered Clouds
11:54 PM 71.6 °F - 69.8 °F 94% 29.92 in 10.0 mi Calm Calm - N/A   Scattered Clouds